{"data":{"norad_id":61785,"epoch":"2026-09-19T21:57:22.487904Z","epoch_age_seconds":64812,"freshness":"FRESH","line1":"1 61785U 24199BC  26262.91484361  .00094781  00000+0  65575-3 0  9995","line2":"2 61785  97.2724 143.0886 0002220 268.5131  91.5879 15.74231141149307","mean_motion":15.74231141,"eccentricity":0.000222,"inclination_deg":97.2724,"raan_deg":143.0886,"arg_perigee_deg":268.5131,"mean_anomaly_deg":91.5879,"bstar":0.00065575,"rev_number":14930,"period_min":91.473225404833,"perigee_km":345.327008986,"apogee_km":348.31288987154,"semimajor_km":6724.9569494288,"source":"CELESTRAK","updated_at":"2026-09-20T09:00:45.241959Z"}}